Rechercher aéroport 
image banner adimage banner adimage banner ad
image banner ad

6PN5 - Sam's Field

Situé à Bradford, United States

ICAO - 6PN5, IATA -

Données fournies par Airmate  

Information générale

Coordonnées: N41°54'27" W78°37'44"
Élévation : 1540 feet MSL.
Variation magnétique : -10° East
Voir autres Aéroports à Pennsylvania

Données opérationnelles

Special qualification required
Heure actuelle UTC:
Heure actuelle locale:
Météo à : KBFD - Bradford Rgnl ( 12 km )
METAR: KBFD 270453Z AUTO 00000KT 5SM BR CLR 13/12 A3008 RMK AO2 SLP172 T01330117 402830128
TAF: KBFD 270256Z 2703/2724 31007KT P6SM SKC FM271500 28008KT P6SM SCT040
Voir NOTAMs / SUP AIP / TFR affectant cet aéroport [VIEW]
Fréquences de communication: [VIEW]

Pistes:

Identifiant RWYQFULongueur (ft)Largeur (ft)SurfaceLDA (ft)
091300100GRASS
271300100GRASS

Coordonnées de l'aéroport

Adresse: Bradford United States

Vue satellite de 6PN5